Simultaneous Nadir Overpasses (SNOs) Predictions

Prediction of SNOs between AQUA and METOP-B Satellite Orbit:

Table of predicted SNOs for the next 14.0 days since TLE Epoch: 9/7/2018
Index Date (AQUA) Time (AQUA) Lat,Lon (AQUA) SZA (AQUA ) Date (METOP-B) Time (METOP-B) Lat,Lon (METOP-B) SZA (METOP-B ) Distance(km) Time Diff (sec)
1 09/09/2018 00:41:09 -73.27, -14.84 112.19 09/09/2018 00:40:04 -73.20, -17.94 112.15 99.65 65
2 09/09/2018 01:30:51 73.99, 151.24 68.59 09/09/2018 01:30:27 74.02, 151.27 68.62 3.17 24
3 09/09/2018 02:20:17 -74.05, -41.25 111.34 09/09/2018 02:21:08 -74.07, -41.26 111.32 3.18 51
4 09/11/2018 20:15:26 -73.52, 51.08 110.86 09/11/2018 20:14:18 -73.47, 49.05 110.85 64.31 68
5 09/11/2018 21:05:02 73.99,-142.31 69.65 09/11/2018 21:04:46 73.98,-142.42 69.64 3.75 16
6 09/11/2018 21:54:29 -74.09, 25.10 110.24 09/11/2018 21:55:26 -74.09, 25.17 110.25 2.24 57
7 09/14/2018 15:49:43 -73.83, 116.86 109.47 09/14/2018 15:48:31 -73.73, 116.06 109.54 27.50 72
8 09/14/2018 16:39:15 74.04, -75.97 70.77 09/14/2018 16:39:04 74.03, -75.88 70.76 2.95 11
9 09/14/2018 17:28:41 -74.09, 91.56 109.17 09/14/2018 17:29:45 -74.10, 91.61 109.17 1.83 64
10 09/17/2018 11:23:58 -73.98,-177.03 108.23 09/17/2018 11:22:45 -73.98,-176.93 108.22 3.23 73
11 09/17/2018 12:13:27 74.04, -9.53 71.85 09/17/2018 12:13:23 74.04, -9.46 71.85 2.22 4
12 09/17/2018 13:02:53 -74.08, 158.01 108.09 09/17/2018 13:04:04 -74.10, 158.04 108.08 2.34 71
13 09/20/2018 06:58:10 -73.98,-110.59 107.14 09/20/2018 06:57:04 -73.99,-110.50 107.13 2.57 66
14 09/20/2018 07:47:39 74.04, 56.91 72.94 09/20/2018 07:47:42 74.04, 56.96 72.94 1.70 3




NCC Satellite Simultaneous Nadir Overpasses (SNOs) Prediction Service
